period_start,C,m1,H,J0,J1,J2,J3,J4,J5,JA,JB,JC,JD,JJ,JK,JN,#
2013-12-15 00:00:16,0.14,2.38,0.00,26.36,27.67,30.82,5.90,30.92,1023.94,2039.99,2654.72,2687.66,2883.43,348.06,320.86,20.61,0000 0000 0000 0000 000000
2013-12-15 00:01:16,0.25,2.38,0.00,26.39,27.67,30.82,6.03,30.71,1023.95,2039.99,2654.27,2687.25,2883.16,350.87,323.45,20.62,0000 0000 0000 0000 000000
2013-12-15 00:02:17,0.22,2.39,0.00,26.35,27.67,30.85,5.93,30.96,1023.98,2039.99,2654.03,2687.09,2883.02,350.26,323.14,20.63,0000 0000 0000 0000 000000
2013-12-15 00:03:17,0.14,2.39,0.00,26.40,27.67,30.89,5.95,31.00,1024.01,2039.99,2653.49,2687.02,2882.64,348.69,321.25,20.63,0000 0000 0000 0000 000000
2013-12-15 00:04:17,0.16,2.39,0.00,26.36,27.67,30.87,5.96,30.83,1024.03,2039.99,2653.18,2686.77,2882.25,350.69,323.30,20.64,0000 0000 0000 0000 000000
2013-12-15 00:05:17,0.20,2.39,0.00,26.38,27.67,30.80,5.90,30.67,1024.09,2039.99,2652.95,2686.34,2882.09,348.99,321.73,20.64,0000 0000 0000 0000 000000
2013-12-15 00:06:18,0.20,2.39,0.00,26.36,27.66,30.79,6.10,31.42,1024.08,2039.99,2652.43,2686.13,2881.97,351.77,324.42,20.65,0000 0000 0000 0000 000000
2013-12-15 00:07:18,0.17,2.39,0.00,26.37,27.65,30.82,5.96,31.00,1024.07,2039.99,2652.15,2686.03,2881.55,349.62,322.33,20.65,0000 0000 0000 0000 000000
2013-12-15 00:08:18,0.14,2.39,0.00,26.38,27.65,30.80,5.91,31.17,1024.16,2039.99,2651.92,2685.85,2881.20,350.11,322.79,20.66,0000 0000 0000 0000 000000
2013-12-15 00:09:19,0.19,2.39,0.00,26.37,27.65,30.79,5.90,30.58,1024.13,2039.99,2651.40,2685.40,2881.07,350.78,323.44,20.67,0000 0000 0000 0000 000000
2013-12-15 00:10:19,0.21,2.39,0.00,26.38,27.65,30.82,5.89,30.71,1023.99,2039.99,2651.15,2685.15,2880.98,349.96,322.19,20.67,0000 0000 0000 0000 000000
2013-12-15 00:11:19,0.14,2.39,0.00,26.36,27.65,30.85,5.98,30.63,1023.97,2039.99,2650.99,2685.05,2880.51,349.86,322.51,20.68,0000 0000 0000 0000 000000
2013-12-15 00:12:19,0.14,2.40,0.00,26.37,27.65,30.81,5.95,30.25,1024.08,2039.99,2650.52,2684.97,2880.19,350.73,322.72,20.68,0000 0000 0000 0000 000000
2013-12-15 00:13:20,0.18,2.40,0.00,26.39,27.65,30.81,6.01,30.75,1024.24,2039.99,2650.19,2684.53,2880.06,350.27,323.16,20.69,0000 0000 0000 0000 000000
2013-12-15 00:14:20,0.19,2.40,0.00,26.38,27.65,30.78,5.93,30.75,1024.03,2039.99,2650.00,2684.20,2879.94,350.28,322.91,20.70,0000 0000 0000 0000 000000
2013-12-15 00:15:20,0.17,2.40,0.00,26.39,27.64,30.77,5.82,30.71,1023.95,2039.99,2649.51,2684.07,2879.51,349.67,322.31,20.70,0000 0000 0000 0000 000000
2013-12-15 00:16:20,0.17,2.40,0.00,26.39,27.63,30.76,5.92,30.75,1023.96,2039.99,2649.19,2684.01,2879.20,350.62,323.27,20.71,0000 0000 0000 0000 000000
2013-12-15 00:17:21,0.13,2.40,0.00,26.36,27.63,30.79,5.92,30.75,1023.95,2039.99,2649.05,2683.79,2879.07,350.89,323.17,20.71,0000 0000 0000 0000 000000
2013-12-15 00:18:21,0.14,2.40,0.00,26.38,27.63,30.81,6.21,30.75,1023.94,2040.00,2648.71,2683.36,2879.01,351.17,323.70,20.72,0000 0000 0000 0000 000000
2013-12-15 00:19:21,0.19,2.40,0.00,26.38,27.62,30.82,5.94,31.04,1023.94,2040.01,2648.27,2683.13,2878.85,350.23,322.67,20.73,0000 0000 0000 0000 000000
2013-12-15 00:20:22,0.18,2.40,0.00,26.39,27.62,30.79,5.91,30.50,1023.94,2040.01,2648.09,2683.04,2878.39,349.48,322.36,20.73,0000 0000 0000 0000 000000
2013-12-15 00:21:22,0.13,2.40,0.00,26.36,27.62,30.80,5.83,30.58,1023.94,2040.02,2647.71,2682.96,2878.13,350.00,322.64,20.74,0000 0000 0000 0000 000000
2013-12-15 00:22:22,0.15,2.41,0.00,26.35,27.62,30.80,5.88,31.00,1023.94,2040.01,2647.28,2682.58,2878.04,350.55,323.16,20.74,0000 0000 0000 0000 000000
2013-12-15 00:23:23,0.20,2.41,0.00,26.36,27.62,30.81,5.96,31.17,1023.94,2040.00,2647.09,2682.21,2877.81,349.10,321.82,20.75,0000 0000 0000 0000 000000
2013-12-15 00:24:23,0.18,2.41,0.00,26.40,27.62,30.81,5.96,30.88,1023.94,2040.00,2646.75,2682.07,2877.34,349.65,322.27,20.75,0000 0000 0000 0000 000000
2013-12-15 00:25:23,0.18,2.41,0.00,26.31,27.62,30.81,5.92,30.71,1023.94,2040.00,2646.28,2681.99,2877.12,350.04,322.74,20.76,0000 0000 0000 0000 000000
2013-12-15 00:26:24,0.12,2.41,0.00,26.33,27.62,30.82,5.80,30.08,1023.94,2040.01,2646.10,2681.69,2877.01,349.94,322.83,20.77,0000 0000 0000 0000 000000
2013-12-15 00:27:24,0.17,2.41,0.00,26.36,27.62,30.83,6.00,31.17,1023.90,2040.01,2645.81,2681.29,2876.78,350.77,323.10,20.77,0000 0000 0000 0000 000000
2013-12-15 00:28:24,0.22,2.41,0.00,26.38,27.62,30.80,5.96,30.63,1023.92,2040.01,2645.32,2681.10,2876.37,350.45,323.02,20.78,0000 0000 0000 0000 000000
2013-12-15 00:29:24,0.18,2.41,0.00,26.40,27.61,30.79,5.78,30.92,1023.93,2040.00,2645.11,2681.03,2876.13,350.32,322.50,20.78,0000 0000 0000 0000 000000
2013-12-15 00:30:25,0.08,2.41,0.00,26.41,27.61,30.80,5.94,30.71,1023.92,2040.01,2644.86,2680.83,2876.03,349.95,322.47,20.79,0000 0000 0000 0000 000000
2013-12-15 00:31:25,0.18,2.41,0.00,26.35,27.61,30.80,5.77,30.42,1023.93,2040.01,2644.39,2680.36,2875.73,349.75,322.35,20.80,0000 0000 0000 0000 000000
2013-12-15 00:32:25,0.25,2.42,0.00,26.35,27.60,30.88,5.93,30.92,1023.93,2040.02,2644.14,2680.13,2875.33,349.75,322.43,20.80,0000 0000 0000 0000 000000
2013-12-15 00:33:25,0.17,2.42,0.00,26.39,27.60,30.81,5.97,30.58,1023.91,2040.02,2643.96,2680.05,2875.12,350.84,323.34,20.81,0000 0000 0000 0000 000000
2013-12-15 00:34:26,0.11,2.42,0.00,26.40,27.60,30.80,5.85,31.04,1023.94,2040.02,2643.48,2679.97,2875.03,349.19,321.85,20.81,0000 0000 0000 0000 000000
2013-12-15 00:35:26,0.15,2.42,0.00,26.41,27.60,30.78,5.85,31.17,1023.94,2040.02,2643.17,2679.57,2874.68,350.50,323.04,20.82,0000 0000 0000 0000 000000
2013-12-15 00:36:26,0.22,2.42,0.00,26.42,27.60,30.80,5.78,30.88,1023.95,2040.01,2642.90,2679.22,2874.28,349.31,322.26,20.82,0000 0000 0000 0000 000000
2013-12-15 00:37:26,0.21,2.42,0.00,26.43,27.60,30.79,5.92,30.79,1023.95,2040.00,2642.42,2679.08,2874.10,349.52,322.25,20.83,0000 0000 0000 0000 000000
2013-12-15 00:38:26,0.14,2.42,0.00,26.43,27.60,30.81,6.09,31.33,1023.95,2040.00,2642.15,2678.98,2873.99,349.18,321.43,20.84,0000 0000 0000 0000 000000
2013-12-15 00:39:27,0.10,2.42,0.00,26.44,27.60,30.85,5.81,30.58,1023.94,2040.02,2641.96,2678.65,2873.56,349.79,322.56,20.84,0000 0000 0000 0000 000000
2013-12-15 00:40:27,0.25,2.42,0.00,26.44,27.60,30.80,5.91,31.17,1023.94,2040.05,2641.48,2678.26,2873.22,349.79,322.51,20.85,0000 0000 0000 0000 000000
2013-12-15 00:41:27,0.24,2.43,0.00,26.42,27.60,30.79,5.83,30.67,1023.95,2040.06,2641.17,2678.09,2873.08,350.14,322.70,20.85,0000 0000 0000 0000 000000
2013-12-15 00:42:27,0.14,2.43,0.00,26.43,27.60,30.80,5.85,30.88,1023.95,2040.05,2640.98,2678.01,2872.96,349.84,322.42,20.86,0000 0000 0000 0000 000000
2013-12-15 00:43:27,0.12,2.43,0.00,26.42,27.60,30.81,5.88,30.67,1023.94,2040.03,2640.45,2677.59,2872.50,348.98,321.64,20.87,0000 0000 0000 0000 000000
2013-12-15 00:44:27,0.26,2.43,0.00,26.42,27.60,30.84,6.12,31.50,1023.93,2040.03,2640.15,2677.21,2872.18,351.09,323.53,20.87,0000 0000 0000 0000 000000
2013-12-15 00:45:28,0.21,2.43,0.00,26.41,27.60,30.82,5.97,31.13,1023.90,2040.01,2639.73,2677.07,2872.01,349.71,322.30,20.88,0000 0000 0000 0000 000000
2013-12-15 00:46:28,0.16,2.43,0.00,26.39,27.60,30.80,5.85,30.71,1023.91,2040.01,2639.27,2676.76,2871.55,350.02,322.61,20.88,0000 0000 0000 0000 000000
2013-12-15 00:47:28,0.23,2.43,0.00,26.39,27.60,30.79,6.02,30.83,1023.75,2040.02,2639.09,2676.48,2871.23,350.75,323.25,20.89,0000 0000 0000 0000 000000
2013-12-15 00:48:28,0.18,2.43,0.00,26.40,27.60,30.78,5.92,30.63,1023.48,2040.00,2638.79,2676.18,2871.08,350.93,323.31,20.89,0000 0000 0000 0000 000000
2013-12-15 00:49:29,0.15,2.43,0.00,26.37,27.60,30.77,5.77,30.92,1023.45,2040.01,2638.32,2676.08,2870.97,347.85,321.51,20.90,0000 0000 0000 0000 000000
2013-12-15 00:50:29,0.14,2.44,0.00,26.38,27.60,30.76,6.04,31.13,1023.45,2040.02,2638.10,2676.02,2870.53,350.16,322.90,20.91,0000 0000 0000 0000 000000
2013-12-15 00:51:29,0.13,2.44,0.00,26.36,27.60,30.82,5.96,30.75,1023.44,2040.02,2637.81,2675.69,2870.20,350.32,322.78,20.91,0000 0000 0000 0000 000000
2013-12-15 00:52:29,0.23,2.44,0.00,26.34,27.60,30.82,6.02,31.25,1023.40,2040.01,2637.32,2675.26,2870.06,350.29,322.75,20.92,0000 0000 0000 0000 000000
2013-12-15 00:53:29,0.21,2.44,0.00,26.33,27.59,30.80,5.94,31.50,1023.30,2040.01,2637.08,2675.08,2869.77,350.05,322.38,20.92,0000 0000 0000 0000 000000
2013-12-15 00:54:30,0.17,2.44,0.00,26.35,27.59,30.79,6.06,31.17,1023.02,2040.01,2636.56,2674.96,2869.32,350.96,323.26,20.93,0000 0000 0000 0000 000000
2013-12-15 00:55:30,0.21,2.44,0.00,26.36,27.58,30.78,5.91,31.00,1022.99,2040.04,2636.20,2674.53,2869.11,349.28,321.68,20.94,0000 0000 0000 0000 000000
2013-12-15 00:56:30,0.24,2.44,0.00,26.40,27.58,30.76,5.83,31.13,1022.99,2040.03,2635.96,2674.21,2868.99,348.57,320.97,20.94,0000 0000 0000 0000 000000
2013-12-15 00:57:31,0.17,2.44,0.00,26.36,27.58,30.73,6.11,31.29,1022.99,2040.05,2635.43,2674.07,2868.54,350.15,322.55,20.95,0000 0000 0000 0000 000000
2013-12-15 00:58:31,0.20,2.44,0.00,26.36,27.57,30.76,5.95,31.63,1022.97,2040.04,2635.15,2673.79,2868.20,350.09,322.42,20.95,0000 0000 0000 0000 000000
2013-12-15 00:59:31,0.19,2.45,0.00,26.36,27.57,30.78,5.96,31.25,1022.96,2040.03,2634.71,2673.39,2868.04,348.95,321.31,20.96,0000 0000 0000 0000 000000
2013-12-15 01:00:31,0.22,2.45,0.00,26.31,27.57,30.80,5.80,31.38,1022.97,2040.02,2634.26,2673.14,2867.60,349.57,322.43,20.97,0000 0000 0000 0000 000000
2013-12-15 01:01:32,0.22,2.45,0.00,26.30,27.57,30.80,5.88,31.63,1022.98,2040.06,2633.98,2673.02,2867.23,350.07,322.69,20.97,0000 0000 0000 0000 000000
2013-12-15 01:02:32,0.21,2.45,0.00,26.31,27.57,30.86,6.12,32.00,1022.97,2040.12,2633.44,2672.69,2867.07,350.94,323.55,20.98,0000 0000 0000 0000 000000
2013-12-15 01:03:32,0.26,2.45,0.00,26.30,27.57,30.83,5.98,31.54,1022.96,2040.10,2633.15,2672.25,2866.84,349.98,322.38,20.98,0000 0000 0000 0000 000000
2013-12-15 01:04:32,0.18,2.45,0.00,26.30,27.57,30.81,5.88,31.42,1022.96,2040.08,2632.70,2672.09,2866.38,349.26,321.71,20.99,0000 0000 0000 0000 000000
2013-12-15 01:05:33,0.18,2.45,0.00,26.30,27.57,30.83,5.92,31.46,1022.96,2040.04,2632.26,2671.86,2866.13,350.29,322.67,20.99,0000 0000 0000 0000 000000
2013-12-15 01:06:33,0.19,2.45,0.00,26.32,27.57,30.79,5.94,31.46,1022.96,2040.04,2631.91,2671.37,2865.81,349.96,322.34,21.00,0000 0000 0000 0000 000000
2013-12-15 01:07:33,0.30,2.46,0.00,26.31,27.57,30.72,5.87,31.25,1022.88,2040.05,2631.36,2671.13,2865.32,350.21,322.56,21.01,0000 0000 0000 0000 000000
2013-12-15 01:08:33,0.21,2.46,0.00,26.31,27.57,30.70,5.89,31.46,1022.78,2040.04,2631.09,2670.97,2865.11,349.86,322.79,21.01,0000 0000 0000 0000 000000
2013-12-15 01:09:34,0.15,2.46,0.00,26.30,27.57,30.72,5.88,31.17,1022.58,2040.05,2630.65,2670.50,2864.81,349.40,321.73,21.02,0000 0000 0000 0000 000000
2013-12-15 01:10:34,0.32,2.46,0.00,26.28,27.57,30.72,5.99,31.33,1022.59,2040.06,2630.23,2670.18,2864.33,350.11,321.87,21.02,0000 0000 0000 0000 000000
2013-12-15 01:11:34,0.20,2.46,0.00,26.28,27.57,30.73,5.82,31.54,1022.62,2040.05,2629.88,2670.05,2864.12,349.30,321.67,21.03,0000 0000 0000 0000 000000
2013-12-15 01:12:34,0.15,2.46,0.00,26.28,27.57,30.75,5.93,31.21,1022.68,2040.05,2629.38,2669.71,2863.97,350.08,322.40,21.04,0000 0000 0000 0000 000000
2013-12-15 01:13:35,0.24,2.46,0.00,26.30,27.57,30.72,5.99,31.42,1022.65,2040.06,2629.13,2669.30,2863.51,350.88,322.80,21.04,0000 0000 0000 0000 000000
2013-12-15 01:14:35,0.24,2.47,0.00,26.33,27.57,30.76,6.02,31.63,1022.51,2040.10,2628.64,2669.11,2863.19,350.63,323.16,21.05,0000 0000 0000 0000 000000
2013-12-15 01:15:35,0.22,2.47,0.00,26.31,27.56,30.78,5.90,31.29,1022.48,2040.07,2628.23,2668.94,2863.00,350.31,322.51,21.05,0000 0000 0000 0000 000000
2013-12-15 01:16:35,0.14,2.47,0.00,26.28,27.56,30.76,5.95,31.04,1022.60,2040.06,2627.90,2668.48,2862.53,349.59,321.92,21.06,0000 0000 0000 0000 000000
2013-12-15 01:17:36,0.31,2.47,0.00,26.32,27.55,30.72,5.93,31.79,1022.90,2040.06,2627.36,2668.17,2862.20,350.16,322.50,21.07,0000 0000 0000 0000 000000
2013-12-15 01:18:36,0.21,2.47,0.00,26.32,27.55,30.74,6.03,31.33,1022.76,2040.10,2627.11,2668.04,2862.02,351.01,322.73,21.07,0000 0000 0000 0000 000000
2013-12-15 01:19:36,0.16,2.47,0.00,26.32,27.55,30.73,6.10,31.04,1022.60,2040.16,2626.65,2667.75,2861.62,350.89,323.16,21.08,0000 0000 0000 0000 000000
2013-12-15 01:20:36,0.31,2.47,0.00,26.32,27.55,30.74,6.16,31.63,1022.50,2040.13,2626.22,2667.29,2861.23,351.03,322.72,21.08,0000 0000 0000 0000 000000
2013-12-15 01:21:37,0.21,2.47,0.00,26.28,27.55,30.75,5.93,31.46,1022.49,2040.11,2625.66,2667.08,2861.01,350.20,322.10,21.09,0000 0000 0000 0000 000000
2013-12-15 01:22:37,0.22,2.48,0.00,26.26,27.55,30.78,5.83,30.92,1022.49,2040.10,2625.23,2666.66,2860.48,349.79,322.09,21.09,0000 0000 0000 0000 000000
2013-12-15 01:23:37,0.29,2.48,0.00,26.25,27.55,30.75,6.04,31.25,1022.48,2040.15,2624.80,2666.26,2860.17,350.05,322.34,21.10,0000 0000 0000 0000 000000
2013-12-15 01:24:37,0.32,2.48,0.00,26.25,27.55,30.75,5.96,31.04,1022.48,2040.18,2624.30,2666.06,2859.92,350.38,322.65,21.11,0000 0000 0000 0000 000000
2013-12-15 01:25:38,0.19,2.48,0.00,26.27,27.55,30.75,5.91,30.88,1022.48,2040.12,2623.86,2665.59,2859.40,349.58,321.89,21.11,0000 0000 0000 0000 000000
2013-12-15 01:26:38,0.27,2.48,0.00,26.26,27.55,30.73,5.97,30.96,1022.50,2040.09,2623.34,2665.22,2859.13,350.64,322.88,21.12,0000 0000 0000 0000 000000
2013-12-15 01:27:38,0.20,2.48,0.00,26.28,27.55,30.74,5.81,31.08,1022.49,2040.09,2623.11,2665.02,2858.68,349.77,322.06,21.12,0000 0000 0000 0000 000000
2013-12-15 01:28:38,0.21,2.48,0.00,26.28,27.55,30.75,5.88,30.58,1022.48,2040.08,2622.66,2664.58,2858.26,349.73,322.01,21.13,0000 0000 0000 0000 000000
2013-12-15 01:29:39,0.29,2.49,0.00,26.30,27.55,30.72,5.89,30.92,1022.48,2040.05,2622.23,2664.22,2858.07,349.89,322.14,21.14,0000 0000 0000 0000 000000
2013-12-15 01:30:39,0.17,2.49,0.00,26.27,27.55,30.70,6.02,31.00,1022.48,2040.06,2621.78,2664.04,2857.57,349.32,321.65,21.14,0000 0000 0000 0000 000000
2013-12-15 01:31:39,0.26,2.49,0.00,26.26,27.55,30.75,5.94,30.83,1022.48,2040.11,2621.31,2663.60,2857.21,350.03,322.31,21.15,0000 0000 0000 0000 000000
2013-12-15 01:32:39,0.36,2.49,0.00,26.23,27.54,30.74,5.98,31.13,1022.48,2040.26,2620.95,2663.22,2857.03,351.45,323.65,21.15,0000 0000 0000 0000 000000
2013-12-15 01:33:40,0.31,2.49,0.00,26.21,27.54,30.75,6.08,31.25,1022.51,2040.32,2620.40,2663.06,2856.56,350.47,322.50,21.16,0000 0000 0000 0000 000000
2013-12-15 01:34:40,0.26,2.49,0.00,26.20,27.53,30.73,5.97,31.29,1022.48,2040.25,2620.01,2662.56,2856.20,349.96,322.32,21.16,0000 0000 0000 0000 000000
2013-12-15 01:35:40,0.26,2.50,0.00,26.25,27.52,30.72,5.99,31.13,1022.48,2040.29,2619.42,2662.20,2855.92,350.52,322.78,21.17,0000 0000 0000 0000 000000
2013-12-15 01:36:40,0.30,2.50,0.00,26.21,27.52,30.70,5.88,31.17,1022.48,2040.29,2619.08,2662.02,2855.39,349.19,321.84,21.18,0000 0000 0000 0000 000000
2013-12-15 01:37:40,0.21,2.50,0.00,26.27,27.52,30.76,5.96,31.04,1022.48,2040.40,2618.50,2661.55,2855.12,349.40,322.20,21.18,0000 0000 0000 0000 000000
2013-12-15 01:38:41,0.35,2.50,0.00,26.28,27.52,30.74,5.79,31.21,1022.36,2040.35,2618.09,2661.21,2854.65,350.08,322.81,21.19,0000 0000 0000 0000 000000
2013-12-15 01:39:41,0.29,2.50,0.00,26.24,27.52,30.73,5.86,31.54,1022.05,2040.40,2617.50,2661.00,2854.24,349.88,321.92,21.19,0000 0000 0000 0000 000000
2013-12-15 01:40:41,0.23,2.50,0.00,26.25,27.52,30.76,5.93,31.63,1022.00,2040.46,2617.15,2660.51,2854.03,351.16,323.21,21.20,0000 0000 0000 0000 000000
2013-12-15 01:41:41,0.31,2.51,0.00,26.17,27.52,30.74,6.02,31.46,1021.99,2040.54,2616.58,2660.19,2853.55,349.93,322.63,21.21,0000 0000 0000 0000 000000
2013-12-15 01:42:42,0.35,2.51,0.00,26.17,27.52,30.70,5.92,31.00,1021.99,2040.59,2616.19,2659.94,2853.19,350.17,322.72,21.21,0000 0000 0000 0000 000000
2013-12-15 01:43:42,0.22,2.51,0.00,26.21,27.52,30.71,5.90,31.21,1021.99,2040.45,2615.62,2659.42,2852.82,349.05,321.31,21.22,0000 0000 0000 0000 000000
2013-12-15 01:44:42,0.23,2.51,0.00,26.22,27.52,30.74,5.96,30.92,1021.99,2040.47,2615.19,2659.14,2852.34,350.63,322.75,21.22,0000 0000 0000 0000 000000
2013-12-15 01:45:42,0.25,2.51,0.00,26.22,27.52,30.71,5.99,31.38,1021.99,2040.54,2614.61,2658.72,2852.08,350.50,322.63,21.23,0000 0000 0000 0000 000000
2013-12-15 01:46:43,0.40,2.51,0.00,26.20,27.52,30.71,5.91,31.13,1021.98,2040.44,2614.20,2658.28,2851.58,350.63,322.77,21.24,0000 0000 0000 0000 000000
2013-12-15 01:47:43,0.17,2.52,0.00,26.22,27.51,30.73,5.92,31.17,1021.99,2040.47,2613.63,2658.06,2851.20,350.11,322.29,21.24,0000 0000 0000 0000 000000
2013-12-15 01:48:43,0.31,2.52,0.00,26.25,27.50,30.70,6.04,31.04,1021.99,2040.44,2613.21,2657.61,2850.88,350.47,322.58,21.25,0000 0000 0000 0000 000000
2013-12-15 01:49:43,0.19,2.52,0.00,26.20,27.50,30.73,5.96,30.96,1021.99,2040.56,2612.71,2657.23,2850.38,349.83,322.13,21.25,0000 0000 0000 0000 000000
2013-12-15 01:50:44,0.43,2.52,0.00,26.20,27.50,30.69,5.97,30.96,1021.96,2040.56,2612.25,2657.06,2850.10,350.49,322.21,21.26,0000 0000 0000 0000 000000
2013-12-15 01:51:44,0.15,2.52,0.00,26.22,27.50,30.72,5.98,31.33,1021.86,2040.68,2611.69,2656.60,2849.70,349.82,321.98,21.26,0000 0000 0000 0000 000000
2013-12-15 01:52:44,0.46,2.52,0.00,26.21,27.50,30.69,6.13,31.21,1021.89,2040.83,2611.25,2656.22,2849.28,351.48,323.52,21.27,0000 0000 0000 0000 000000
2013-12-15 01:53:44,0.39,2.53,0.00,26.22,27.50,30.71,5.88,31.08,1021.96,2040.92,2610.80,2656.03,2849.01,349.58,321.78,21.28,0000 0000 0000 0000 000000
2013-12-15 01:54:44,0.26,2.53,0.00,26.25,27.50,30.72,5.87,30.83,1021.99,2040.90,2610.28,2655.55,2848.50,349.60,321.77,21.28,0000 0000 0000 0000 000000
2013-12-15 01:55:45,0.29,2.53,0.00,26.24,27.50,30.71,5.86,30.79,1021.99,2040.90,2609.75,2655.19,2848.18,349.96,321.53,21.29,0000 0000 0000 0000 000000
2013-12-15 01:56:45,0.27,2.53,0.00,26.22,27.50,30.70,6.08,30.79,1021.79,2040.91,2609.29,2654.92,2847.91,351.18,323.20,21.29,0000 0000 0000 0000 000000
2013-12-15 01:57:45,0.24,2.53,0.00,26.25,27.50,30.71,5.92,30.96,1021.58,2040.93,2608.99,2654.40,2847.41,349.51,322.33,21.30,0000 0000 0000 0000 000000
2013-12-15 01:58:45,0.31,2.54,0.00,26.22,27.50,30.70,5.98,30.88,1021.54,2040.92,2608.42,2654.12,2847.11,349.97,321.70,21.31,0000 0000 0000 0000 000000
2013-12-15 01:59:45,0.21,2.54,0.00,26.22,27.49,30.67,5.87,30.75,1021.50,2040.89,2607.99,2653.83,2846.64,350.44,322.70,21.31,0000 0000 0000 0000 000000
2013-12-15 02:00:46,0.26,2.54,0.00,26.25,27.49,30.69,5.88,31.21,1021.50,2040.92,2607.43,2653.36,2846.24,350.77,322.70,21.32,0000 0000 0000 0000 000000
2013-12-15 02:01:46,0.33,2.54,0.00,26.26,27.48,30.66,5.98,30.83,1021.50,2040.91,2607.13,2653.14,2846.04,350.27,322.19,21.32,0000 0000 0000 0000 000000
2013-12-15 02:02:46,0.11,2.54,0.00,26.23,27.48,30.68,5.81,30.88,1021.50,2040.93,2606.58,2652.94,2845.61,348.82,320.69,21.33,0000 0000 0000 0000 000000
2013-12-15 02:03:46,0.29,2.54,0.00,26.20,27.48,30.68,6.00,31.38,1021.50,2040.95,2606.19,2652.42,2845.22,351.20,323.05,21.33,0000 0000 0000 0000 000000
2013-12-15 02:04:47,0.31,2.54,0.00,26.25,27.47,30.70,5.73,30.75,1021.50,2040.95,2605.63,2652.14,2844.93,350.04,321.82,21.34,0000 0000 0000 0000 000000
2013-12-15 02:05:47,0.22,2.55,0.00,26.28,27.47,30.69,5.85,31.29,1021.50,2040.94,2605.20,2651.71,2844.39,351.38,322.61,21.35,0000 0000 0000 0000 000000
2013-12-15 02:06:47,0.33,2.55,0.00,26.24,27.47,30.69,5.85,31.04,1021.50,2040.96,2604.63,2651.29,2844.11,348.99,321.07,21.35,0000 0000 0000 0000 000000
2013-12-15 02:07:47,0.30,2.55,0.00,26.24,27.47,30.71,6.02,31.67,1021.51,2040.95,2604.20,2651.08,2843.68,349.66,321.69,21.36,0000 0000 0000 0000 000000
2013-12-15 02:08:47,0.18,2.55,0.00,26.24,27.47,30.71,5.88,31.25,1021.50,2040.94,2603.62,2650.66,2843.26,349.73,321.76,21.36,0000 0000 0000 0000 000000
2013-12-15 02:09:48,0.35,2.55,0.00,26.21,27.47,30.67,5.77,30.88,1021.49,2040.97,2603.14,2650.24,2842.86,348.52,320.64,21.37,0000 0000 0000 0000 000000
2013-12-15 02:10:48,0.28,2.55,0.00,26.23,27.47,30.68,5.96,31.25,1021.50,2040.99,2602.51,2649.95,2842.34,350.12,322.11,21.38,0000 0000 0000 0000 000000
2013-12-15 02:11:48,0.32,2.56,0.00,26.24,27.47,30.68,5.99,31.83,1021.50,2040.98,2602.05,2649.43,2842.05,350.04,322.04,21.38,0000 0000 0000 0000 000000
2013-12-15 02:12:49,0.28,2.56,0.00,26.23,27.47,30.67,5.99,30.71,1021.42,2040.97,2601.45,2649.12,2841.50,351.14,323.03,21.39,0000 0000 0000 0000 000000
2013-12-15 02:13:49,0.30,2.56,0.00,26.21,27.47,30.67,6.09,31.75,1021.09,2040.97,2600.89,2648.59,2841.14,350.84,322.68,21.39,0000 0000 0000 0000 000000
2013-12-15 02:14:49,0.34,2.56,0.00,26.19,27.47,30.66,5.93,31.42,1021.03,2040.98,2600.33,2648.20,2840.56,350.63,322.49,21.40,0000 0000 0000 0000 000000
2013-12-15 02:15:49,0.33,2.56,0.00,26.17,27.47,30.66,5.93,31.21,1021.02,2040.99,2599.71,2647.75,2840.17,349.46,321.44,21.40,0000 0000 0000 0000 000000
2013-12-15 02:16:49,0.34,2.57,0.00,26.15,27.47,30.65,5.89,31.08,1021.03,2040.99,2599.17,2647.28,2839.61,350.72,322.86,21.41,0000 0000 0000 0000 000000
2013-12-15 02:17:50,0.34,2.57,0.00,26.17,27.47,30.66,5.93,30.88,1021.02,2040.99,2598.51,2646.84,2839.19,349.70,321.65,21.42,0000 0000 0000 0000 000000
2013-12-15 02:18:50,0.34,2.57,0.00,26.16,27.47,30.66,5.94,31.58,1021.01,2040.98,2597.95,2646.32,2838.63,350.55,322.87,21.42,0000 0000 0000 0000 000000
2013-12-15 02:19:50,0.37,2.57,0.00,26.18,27.46,30.67,5.92,31.08,1021.01,2040.99,2597.34,2645.87,2838.21,349.32,321.29,21.43,0000 0000 0000 0000 000000
2013-12-15 02:20:51,0.31,2.57,0.00,26.23,27.46,30.64,5.98,31.33,1021.03,2040.99,2596.74,2645.34,2837.63,350.76,322.16,21.43,0000 0000 0000 0000 000000
2013-12-15 02:21:51,0.40,2.58,0.00,26.23,27.45,30.63,5.88,30.79,1021.05,2040.99,2596.24,2645.01,2837.22,348.94,321.12,21.44,0000 0000 0000 0000 000000
2013-12-15 02:22:51,0.23,2.58,0.00,26.15,27.45,30.66,5.83,31.13,1021.20,2040.99,2595.63,2644.47,2836.64,348.53,321.20,21.45,0000 0000 0000 0000 000000
2013-12-15 02:23:51,0.42,2.58,0.00,26.16,27.45,30.67,6.00,31.46,1021.40,2040.99,2595.18,2644.16,2836.23,349.89,321.96,21.45,0000 0000 0000 0000 000000
2013-12-15 02:24:51,0.22,2.58,0.00,26.18,27.45,30.63,5.92,30.67,1021.47,2040.98,2594.57,2643.67,2835.79,349.47,321.69,21.46,0000 0000 0000 0000 000000
2013-12-15 02:25:52,0.37,2.58,0.00,26.14,27.45,30.66,5.92,31.63,1021.49,2040.98,2594.10,2643.24,2835.29,349.64,321.77,21.46,0000 0000 0000 0000 000000
2013-12-15 02:26:52,0.27,2.58,0.00,26.15,27.45,30.68,5.93,30.96,1021.51,2040.99,2593.47,2642.96,2834.93,349.84,321.95,21.47,0000 0000 0000 0000 000000
2013-12-15 02:27:52,0.26,2.59,0.00,26.12,27.45,30.63,5.95,31.54,1021.52,2040.98,2592.91,2642.42,2834.38,350.14,322.26,21.47,0000 0000 0000 0000 000000
2013-12-15 02:28:52,0.36,2.59,0.00,26.13,27.45,30.68,6.07,31.63,1021.56,2040.98,2592.33,2642.10,2833.95,350.31,322.42,21.48,0000 0000 0000 0000 000000
2013-12-15 02:29:53,0.28,2.59,0.00,26.18,27.45,30.67,5.82,31.21,1021.73,2040.99,2591.81,2641.55,2833.39,349.20,321.39,21.49,0000 0000 0000 0000 000000
2013-12-15 02:30:53,0.37,2.59,0.00,26.19,27.45,30.64,5.98,31.33,1021.80,2040.99,2591.27,2641.19,2833.12,350.90,322.98,21.49,0000 0000 0000 0000 000000
2013-12-15 02:31:53,0.26,2.59,0.00,26.20,27.45,30.57,5.81,31.46,1021.87,2040.99,2590.67,2640.80,2832.60,348.42,320.70,21.50,0000 0000 0000 0000 000000
2013-12-15 02:32:54,0.33,2.60,0.00,26.21,27.44,30.63,5.99,31.54,1021.92,2040.99,2590.20,2640.30,2832.21,349.06,321.65,21.50,0000 0000 0000 0000 000000
2013-12-15 02:33:54,0.29,2.60,0.00,26.18,27.44,30.60,6.06,31.79,1021.84,2040.99,2589.57,2640.08,2831.77,351.10,323.18,21.51,0000 0000 0000 0000 000000
2013-12-15 02:34:54,0.28,2.60,0.00,26.17,27.44,30.60,5.88,31.50,1021.78,2040.99,2589.14,2639.56,2831.29,349.88,322.05,21.52,0000 0000 0000 0000 000000
2013-12-15 02:35:54,0.31,2.60,0.00,26.18,27.43,30.61,5.91,31.50,1021.92,2040.99,2588.53,2639.19,2831.01,351.24,323.34,21.52,0000 0000 0000 0000 000000